User: anonymous   Login
Location: Unspecified
(0.0000°N, 0.0000°E)
Time: 06:07:00
(UTC+00:00)
Language:

USA 252 - Orbit

View from above orbital plane
View from above orbital plane
View from above satellite
View from above satellite

Ground track
Ground track

The orbit data is extracted from the following two-line orbital elements,

1 39751U 14027A   18125.48753292 0.00000000  00000-0  00000-0 0    09
2 39751   2.5381 208.7511 0004292 127.6431 232.4132  1.00270000    08
Epoch (UTC): 05 May 2018 11:42:02
Eccentricity: 0.0004292
inclination: 2.5381°
perigee height: 35768 km
apogee height: 35805 km
right ascension of ascending node: 208.7511°
argument of perigee: 127.6431°
revolutions per day: 1.00270000
mean anomaly at epoch: 232.4132°
orbit number at epoch: 0

The dashed part of the orbit path shows where the satellite is in the earth's shadow,  

DLR